Home > Weather > Košice > Past weeks

Flag for Slovakia Past Weather in Košice, Slovakia — Yesterday and Last 2 Weeks

Now
73 °F

Passing clouds.


Feels Like: 76 °F
Forecast: 66 / 85 °F
Wind: 3 mph from Northeast

Location: Kosice - Barca

Current Time: Jul 25, 2016 at 8:17:55 AM

Latest Report: Jul 25, 2016 at 8:00 AM


Visibility: N/A

Pressure: 30.04 "Hg

Humidity: 69%

Dew Point: 63 °F

Location of KošiceLocation

Past Weather in Košice — Graph

°F

Košice Temperature Yesterday

Maximum temperature yesterday: 86 °F (at 5:00 PM)
Minimum temperature yesterday: 63 °F (at 5:30 AM)
Average temperature yesterday: 75 °F

High & Low Weather Summary for the Past Weeks

 TemperatureHumidityPressure
High90 °F (Jul 12, 3:00 PM)100% (Jul 14, 1:30 AM)30.09 "Hg (Jul 14, 1:30 AM)
Low54 °F (Jul 15, 5:30 AM)33% (Jul 12, 4:00 PM)29.68 "Hg (Jul 14, 6:30 AM)
Average69 °F68%29.99 "Hg
* Reported Jul 10 7:00 AM — Jul 25 7:00 AM, Košice, Weather by CustomWeather, © 2016

Note: Actual official high and low records may vary slightly from our data, if they occured in-between our weather recording intervals... More about our weather records

Advertising

Košice Weather History for the Previous 24 Hours

Scroll right to see more
 ConditionsComfort  
Time TempWeatherWind HumidityBarometerVisibility
7:00 AM
Mon, Jul 25
70 °FSunny.2 mph83%30.04 "Hg10 mi
6:30 AM68 °FSunny.1 mph88%30.04 "Hg10 mi
6:00 AM66 °FSunny.1 mph88%30.04 "Hg10 mi
5:30 AM66 °FClear.1 mph88%30.04 "Hg10 mi
5:00 AM68 °FClear.2 mph83%30.04 "Hg10 mi
4:30 AM68 °FPassing clouds.3 mph83%30.04 "HgN/A
4:00 AM68 °FClear.3 mph83%30.04 "Hg10 mi
3:30 AM70 °FClear.1 mph78%30.04 "Hg10 mi
3:00 AM68 °FClear.2 mph83%30.04 "Hg10 mi
2:30 AM68 °FClear.3 mph83%30.04 "Hg10 mi
2:00 AM70 °FClear.5 mph73%30.04 "Hg10 mi
1:30 AM68 °FClear.2 mph78%30.07 "Hg10 mi
1:00 AM68 °FClear.3 mph78%30.07 "Hg10 mi
12:30 AM68 °FClear.2 mph78%30.07 "Hg10 mi
12:00 AM68 °FClear.2 mph78%30.07 "Hg10 mi
11:30 PM
Sun, Jul 24
70 °FClear.2 mph78%30.07 "Hg10 mi
11:00 PM72 °FClear.3 mph73%30.07 "Hg10 mi
10:30 PM73 °FClear.1 mph69%30.04 "Hg10 mi
10:00 PM73 °FPassing clouds.3 mph74%30.07 "HgN/A
9:30 PM75 °FClear.5 mph65%30.04 "Hg10 mi
9:00 PM75 °FPassing clouds.6 mph69%30.04 "HgN/A
8:30 PM75 °FSunny.7 mph69%30.04 "Hg10 mi
8:00 PM77 °FSunny.5 mph61%30.04 "Hg10 mi
7:30 PM81 °FSunny.5 mph58%30.04 "Hg10 mi
7:00 PM81 °FSunny.6 mph54%30.04 "Hg10 mi
6:30 PM82 °FSunny.5 mph48%30.04 "Hg10 mi
6:00 PM82 °FSunny.6 mph48%30.04 "Hg10 mi
5:30 PM82 °FPassing clouds.6 mph45%30.04 "HgN/A
5:00 PM86 °FSunny.3 mph38%30.04 "Hg10 mi
4:30 PM84 °FSunny.1 mph43%30.04 "Hg10 mi
4:00 PM84 °FPassing clouds.3 mph37%30.04 "HgN/A
3:30 PM84 °FPassing clouds.5 mph43%30.04 "HgN/A
3:00 PM84 °FSunny.7 mph40%30.04 "Hg10 mi
2:30 PM84 °FSunny.5 mph40%30.07 "Hg10 mi
2:00 PM82 °FSunny.5 mph45%30.07 "Hg10 mi
1:30 PM84 °FPassing clouds.6 mph40%30.07 "HgN/A
1:00 PM82 °FPassing clouds.5 mph40%30.07 "HgN/A
12:30 PM81 °FPassing clouds.5 mph45%30.07 "HgN/A
12:00 PM81 °FPassing clouds.6 mph45%30.07 "HgN/A
11:30 AM81 °FPassing clouds.5 mph51%30.07 "HgN/A
11:00 AM79 °FPassing clouds.6 mph51%30.07 "HgN/A
10:30 AM79 °FPassing clouds.5 mph51%30.07 "HgN/A
10:00 AM77 °FPassing clouds.5 mph54%30.07 "HgN/A
9:30 AM75 °FSunny.6 mph54%30.07 "Hg10 mi
9:00 AM75 °FSunny.7 mph57%30.07 "Hg10 mi
8:30 AM73 °FSunny.6 mph61%30.07 "Hg10 mi
8:00 AM73 °FSunny.6 mph65%30.07 "Hg10 mi
Weather by CustomWeather, © 2016

See weather overviewHow to use our weather pages